DateTime,F1_A11,F1_S11,BsB_S11,BsG_S11,BsR_S11,BbsB_S11,BbsG_S11,BbsR_S11,BaB_A11,BaG_A11,BaR_A11,T_S11,U_S11,P_S11,T1_A11
2016-06-09T00:00:00Z,0000380,20000600,,,,,,,,,,26.3,03.6,0678.5,34.5
2016-06-09T00:01:00Z,0000380,20000600,,,,,,,,,,26.3,03.5,0678.5,34.5
2016-06-09T00:02:00Z,0000380,20000600,,,,,,,,,,26.3,03.4,0678.5,34.5
2016-06-09T00:03:00Z,0000380,60000600,,,,,,,,,,26.4,03.4,0678.5,34.5
2016-06-09T00:04:00Z,0000380,40000600,-000.09,0000.00,-000.02,-000.20,-000.50,-000.19,-000.11,-000.20,0000.04,26.4,03.6,0679.3,34.5
2016-06-09T00:05:00Z,0000380,00000600,0000.62,-000.25,0000.43,0000.03,-000.08,0000.30,0000.11,-000.07,0000.02,26.4,03.6,0679.3,34.5
2016-06-09T00:06:00Z,0000380,00000600,-000.39,-000.09,-000.21,-000.11,0000.15,-000.03,-000.25,-000.24,-000.42,26.4,03.7,0679.3,34.5
2016-06-09T00:07:00Z,0000380,00000600,-000.30,0000.12,0000.39,-000.14,-000.42,0000.20,-000.03,-000.05,0000.21,26.4,03.6,0679.3,34.5
2016-06-09T00:08:00Z,0000380,00000600,-000.97,-000.47,0000.21,-000.82,-000.02,0000.12,-000.03,-000.08,0000.06,26.4,03.6,0679.4,34.5
2016-06-09T00:09:00Z,0000380,00000600,0000.36,0000.07,-000.36,-000.25,-000.09,-000.03,0000.22,0000.34,-000.08,26.5,03.5,0679.3,34.5
2016-06-09T00:10:00Z,0000380,00000600,-000.18,-000.23,0000.26,0000.03,0000.19,-000.12,-000.05,-000.18,0000.05,26.5,03.7,0679.3,34.5
2016-06-09T00:11:00Z,0000380,00000600,-000.27,-000.30,0000.14,-000.08,-000.19,-000.26,-000.23,0000.03,0000.00,26.5,03.8,0679.3,34.5
2016-06-09T00:12:00Z,0000380,00000600,-000.66,-000.05,0000.76,-000.03,-000.23,0000.26,0000.12,0000.22,-000.13,26.5,03.7,0679.3,34.5
2016-06-09T00:13:00Z,0000380,00000600,0000.36,0000.00,0000.05,0000.00,-000.11,-000.17,0000.15,0000.04,0000.19,26.5,03.6,0679.3,34.5
2016-06-09T00:14:00Z,0000380,00000600,0000.02,-000.30,-000.22,-000.65,0000.14,-000.12,-000.00,0000.08,0000.24,26.5,03.6,0679.3,34.5
2016-06-09T00:15:00Z,0000380,00000600,-000.45,0000.00,0000.19,-000.31,-000.03,-000.22,0000.21,0000.12,-000.11,26.5,03.7,0679.3,34.5
2016-06-09T00:16:00Z,0000380,00000600,0000.16,-000.25,0000.51,-000.12,-000.19,0000.02,-000.02,-000.21,-000.20,26.5,03.5,0679.3,34.5
2016-06-09T00:17:00Z,0000380,00000600,0000.52,0000.09,0000.47,0000.06,-000.05,-000.17,-000.07,0000.03,-000.09,26.5,03.3,0679.3,34.5
2016-06-09T00:18:00Z,0000380,00000600,0000.19,-000.06,0000.24,-000.20,-000.02,0000.41,0000.13,0000.03,0000.04,26.5,03.3,0679.3,34.5
2016-06-09T00:19:00Z,0000380,00000600,-000.21,0000.09,0000.04,0000.03,0000.15,-000.06,-000.02,-000.05,-000.16,26.5,03.2,0679.4,34.5
2016-06-09T00:20:00Z,0000380,00000600,0000.45,0000.49,0000.32,0000.03,-000.26,0000.42,0000.01,-000.12,0000.10,26.5,02.9,0679.4,34.5
2016-06-09T00:21:00Z,0000380,00000600,0000.08,0000.50,-000.04,-000.26,-000.12,0000.03,0000.02,0000.08,0000.12,26.5,02.9,0679.4,34.5
2016-06-09T00:22:00Z,0000380,00000600,-000.38,0000.89,-000.60,-000.37,0000.09,0000.12,0000.00,-000.01,-000.12,26.5,03.0,0679.4,34.5
2016-06-09T00:23:00Z,0000380,00000600,0000.05,-000.55,-000.20,0000.33,0000.05,0000.12,-000.12,0000.07,-000.15,26.5,03.0,0679.4,34.5
2016-06-09T00:24:00Z,0000380,00000600,-000.20,-000.26,0000.09,0000.45,0000.08,0000.02,0000.17,0000.04,0000.25,26.5,03.1,0679.4,34.5
2016-06-09T00:25:00Z,0000380,00000600,0000.16,-000.39,-000.03,0000.05,-000.20,0000.03,-000.00,0000.06,0000.11,26.5,03.2,0679.4,34.5
2016-06-09T00:26:00Z,0000380,00000600,-000.66,-000.51,0000.15,-000.20,-000.60,0000.12,-000.02,-000.07,-000.01,26.5,03.3,0679.4,34.5
2016-06-09T00:27:00Z,0000380,00000600,0000.18,-000.46,-000.02,-000.61,0000.19,0000.08,-000.02,0000.06,-000.13,26.5,03.2,0679.4,34.5
2016-06-09T00:28:00Z,0000380,00000600,0000.04,0000.56,-000.09,-000.36,0000.19,0000.03,0000.04,0000.02,0000.06,26.5,03.2,0679.4,34.5
2016-06-09T00:29:00Z,0000380,00000600,0000.25,0000.02,-000.27,0000.09,-000.46,0000.37,-000.02,-000.04,0000.14,26.4,03.2,0679.3,34.5
2016-06-09T00:30:00Z,0000380,00000600,-000.84,-000.14,0000.17,0000.12,-000.23,-000.22,-000.05,0000.05,-000.05,26.4,03.3,0679.4,34.5
2016-06-09T00:31:00Z,0000380,00000600,0000.49,0000.40,0000.21,0000.84,0000.29,-000.02,0000.09,0000.09,0000.22,26.4,03.4,0679.4,34.5
2016-06-09T00:32:00Z,0000380,00000600,0000.51,-000.30,0000.09,-000.37,-000.29,0000.20,-000.03,-000.08,-000.37,26.4,03.4,0679.4,34.5
2016-06-09T00:33:00Z,0000380,00000600,-000.18,-000.02,0000.11,-000.56,-000.31,0000.20,0000.11,0000.08,0000.19,26.4,03.3,0679.4,34.5
2016-06-09T00:34:00Z,0000380,00000600,-000.05,0000.40,0000.00,0000.17,0000.60,-000.37,-000.07,-000.16,0000.05,26.3,03.3,0679.4,34.5
2016-06-09T00:35:00Z,0000380,00000600,0000.36,-000.77,0000.24,0000.08,-000.14,0000.39,-000.23,-000.12,-000.26,26.3,03.3,0679.4,34.5
2016-06-09T00:36:00Z,0000380,00000600,-000.19,0000.09,-000.16,0000.50,-000.17,0000.17,-000.01,-000.08,-000.12,26.3,03.2,0679.4,34.5
2016-06-09T00:37:00Z,0000380,00000600,0000.21,-000.02,0000.05,0000.00,-000.25,0000.14,0000.11,-000.28,-000.16,26.3,03.3,0679.4,34.5
2016-06-09T00:38:00Z,0000380,00000600,0000.40,-000.58,0000.44,-000.33,-000.15,0000.28,0000.10,0000.27,0000.25,26.4,03.2,0679.4,34.5
2016-06-09T00:39:00Z,0000380,00000600,-000.23,-000.02,0000.52,-000.03,0000.06,-000.05,-000.10,0000.14,-000.11,26.4,03.2,0679.4,34.5
2016-06-09T00:40:00Z,0000380,00000600,-000.02,-000.41,0000.27,0000.12,-000.34,-000.22,-000.08,-000.27,0000.01,26.4,03.3,0679.3,34.5
2016-06-09T00:41:00Z,0000380,00000600,0000.33,-000.04,-000.15,-000.31,0000.03,0000.12,-000.09,0000.16,0000.08,26.4,03.1,0679.3,34.5
2016-06-09T00:42:00Z,0000380,00000600,0000.32,-000.11,0000.26,-000.30,-000.42,0000.11,0000.20,0000.11,0000.20,26.5,03.1,0679.3,34.5
2016-06-09T00:43:00Z,0000380,00000600,0000.17,0000.27,0000.22,-000.45,-000.20,0000.05,-000.01,0000.20,-000.15,26.5,03.1,0679.3,34.5
2016-06-09T00:44:00Z,0000380,00000600,0000.29,-000.40,-000.02,-000.37,0000.08,0000.00,0000.13,-000.08,0000.25,26.5,03.1,0679.3,34.5
2016-06-09T00:45:00Z,0000380,00000600,-000.08,0000.00,0000.42,-000.03,-000.12,0000.08,-000.17,-000.10,-000.35,26.4,03.1,0679.3,34.5
2016-06-09T00:46:00Z,0000380,00000600,-000.32,-000.19,0000.05,-000.39,-000.26,0000.00,0000.08,0000.03,0000.11,26.4,02.9,0679.3,34.5
2016-06-09T00:47:00Z,0000380,00000600,0000.58,-000.10,0000.20,0000.11,-000.33,-000.33,0000.16,0000.07,0000.19,26.4,02.9,0679.3,34.5
2016-06-09T00:48:00Z,0000380,00000600,-000.45,0000.81,0000.29,-000.30,-000.05,-000.17,-000.08,0000.05,0000.05,26.4,03.0,0679.3,34.5
2016-06-09T00:49:00Z,0000380,00000600,-000.55,0000.24,0000.29,-000.95,0000.26,0000.05,-000.01,-000.04,-000.25,26.4,03.0,0679.3,34.5
2016-06-09T00:50:00Z,0000380,00000600,0000.55,-000.81,0000.17,0000.06,0000.00,0000.08,-000.16,-000.02,-000.12,26.4,03.0,0679.3,34.5
2016-06-09T00:51:00Z,0000380,00000600,-001.07,-000.18,0000.02,-000.22,-000.29,-000.22,0000.05,-000.24,0000.01,26.3,03.0,0679.2,34.5
2016-06-09T00:52:00Z,0000380,00000600,0000.30,0000.07,-000.09,0000.48,-000.03,0000.02,-000.09,-000.21,-000.24,26.3,03.0,0679.2,34.5
2016-06-09T00:53:00Z,0000380,00000600,0000.93,-000.05,0000.16,0000.00,0000.15,-000.14,0000.13,0000.16,0000.33,26.4,02.9,0679.2,34.5
2016-06-09T00:54:00Z,0000380,00000600,-000.18,0000.12,0000.25,-000.39,0000.15,0000.22,0000.01,0000.10,-000.01,26.4,02.9,0679.2,34.5
2016-06-09T00:55:00Z,0000380,00000600,-000.09,0000.07,0000.41,-000.36,0000.09,0000.05,-000.02,-000.17,-000.29,26.4,03.0,0679.2,34.5
2016-06-09T00:56:00Z,0000380,00000600,0000.27,-000.37,0000.31,0000.33,0000.15,0000.25,0000.05,0000.34,0000.32,26.5,03.0,0679.2,34.5
2016-06-09T00:57:00Z,0000380,40000600,,,,,,,,,,,,0679.0,34.5
2016-06-09T00:58:00Z,0000380,60000600,,,,,,,,,,26.3,03.2,0678.3,34.5
2016-06-09T00:59:00Z,0000380,20000600,,,,,,,,,,26.3,03.1,0678.3,34.5
2016-06-09T01:00:00Z,0000380,20000600,,,,,,,,,,26.3,02.9,0678.3,34.5
2016-06-09T01:01:00Z,0000380,20000600,,,,,,,,,,26.3,02.9,0678.3,34.5
2016-06-09T01:02:00Z,0000380,20000600,,,,,,,,,,26.3,02.9,0678.3,34.5
2016-06-09T01:03:00Z,0000380,60000600,,,,,,,,,,26.3,02.9,0678.3,34.5
2016-06-09T01:04:00Z,0000380,40000600,0000.27,0000.05,0000.36,-000.08,0000.00,-000.09,0000.05,0000.03,-000.11,26.3,02.6,0679.1,34.5
2016-06-09T01:05:00Z,0000380,00000600,-000.09,0000.11,0000.00,0000.17,0000.03,-000.12,0000.03,0000.08,0000.08,26.3,02.5,0679.2,34.5
2016-06-09T01:06:00Z,0000380,00000600,0000.28,-000.44,0000.14,0000.36,0000.11,-000.11,-000.11,-000.41,-000.29,26.3,02.7,0679.2,34.5
2016-06-09T01:07:00Z,0000380,00000600,0000.28,-000.23,-000.33,-000.54,-000.08,-000.23,-000.05,0000.03,0000.20,26.3,02.6,0679.2,34.5
2016-06-09T01:08:00Z,0000380,00000600,0000.02,0000.33,0000.04,-000.09,0000.09,0000.03,0000.20,0000.17,-000.01,26.3,02.7,0679.1,34.5
2016-06-09T01:09:00Z,0000380,00000600,-001.10,0000.05,0000.69,0000.22,0000.36,0000.23,0000.02,0000.04,0000.20,26.4,02.7,0679.1,34.5
2016-06-09T01:10:00Z,0000380,00000600,0000.07,0000.49,-000.46,-000.58,0000.26,-000.26,-000.03,-000.08,-000.11,26.4,02.8,0679.2,34.5
2016-06-09T01:11:00Z,0000380,00000600,-000.13,0000.09,0000.40,-000.06,0000.12,-000.19,0000.13,0000.24,-000.04,26.4,02.7,0679.1,34.5
2016-06-09T01:12:00Z,0000380,00000600,-000.43,0000.14,-000.31,-000.16,-000.19,0000.31,0000.04,0000.10,0000.36,26.4,02.8,0679.1,34.5
2016-06-09T01:13:00Z,0000380,00000600,-000.66,0000.18,-000.12,0000.02,0000.42,-000.34,0000.09,0000.12,0000.05,26.4,03.0,0679.1,34.5
2016-06-09T01:14:00Z,0000380,00000600,0000.27,0000.42,0000.12,0000.23,0000.00,0000.39,-000.06,0000.06,-000.01,26.4,03.2,0679.1,34.5
2016-06-09T01:15:00Z,0000388,00000608,0000.14,0000.42,-000.03,0000.31,-000.06,0000.08,0000.06,0000.02,0000.06,26.3,03.2,0679.1,34.5
2016-06-09T01:16:00Z,0000388,00000608,-000.13,-000.09,-000.19,0000.08,0000.64,-000.36,-000.00,0000.06,0000.06,26.4,03.3,0679.1,34.5
2016-06-09T01:17:00Z,0000388,00000608,0000.48,0000.04,0000.20,0000.16,0000.36,0000.20,0000.07,-000.09,-000.08,26.3,03.1,0679.1,34.5
2016-06-09T01:18:00Z,0000388,00000608,-000.55,0000.63,-000.10,0000.25,0000.31,-000.28,0000.17,0000.14,0000.05,26.3,03.1,0679.1,34.5
2016-06-09T01:19:00Z,0000388,00000608,-000.09,0000.36,0000.38,-001.00,0000.39,-000.16,-000.09,0000.06,0000.07,26.3,03.2,0679.1,34.5
2016-06-09T01:20:00Z,0000388,00000608,0000.09,-000.88,0000.28,-000.16,0000.22,0000.03,-000.03,-000.14,-000.22,26.3,03.3,0679.1,34.5
2016-06-09T01:21:00Z,0000388,00000608,-000.43,0000.52,0000.34,0000.17,-000.08,0000.08,-000.12,-000.22,-000.16,26.3,03.2,0679.1,34.5
2016-06-09T01:22:00Z,0000388,00000608,-000.49,0000.16,-000.29,0000.19,0000.23,-000.37,0000.14,0000.09,0000.16,26.3,03.2,0679.1,34.5
2016-06-09T01:23:00Z,0000388,00000608,0001.28,0000.83,0000.22,-000.31,0000.28,0000.08,-000.01,0000.17,0000.14,26.3,03.3,0679.1,34.5
2016-06-09T01:24:00Z,0000388,00000608,0000.16,0000.93,0000.37,0000.39,-000.02,0000.03,0000.03,0000.08,0000.11,26.4,03.2,0679.1,34.5
2016-06-09T01:25:00Z,0000388,00000608,0000.88,-000.10,0000.78,-000.73,0000.33,-000.11,-000.07,-000.29,-000.29,26.3,03.4,0679.1,34.5
2016-06-09T01:26:00Z,0000388,00000608,0000.28,0000.34,-000.04,-000.03,0000.14,-000.47,0000.21,0000.31,0000.14,26.4,03.4,0679.1,34.5
2016-06-09T01:27:00Z,0000388,00000608,0000.53,0000.48,-000.16,0000.11,0000.28,-000.19,0000.13,0000.11,0000.37,26.4,03.4,0679.1,34.5
2016-06-09T01:28:00Z,0000388,00000608,0000.12,0000.05,0000.29,-000.12,0000.14,0000.06,0000.02,0000.11,-000.09,26.4,03.3,0679.1,34.5
2016-06-09T01:29:00Z,0000388,00000608,0000.48,0000.75,0000.00,0000.28,0000.22,-000.11,-000.01,0000.12,-000.10,26.4,03.4,0679.1,34.5
2016-06-09T01:30:00Z,0000388,00000608,0000.84,-000.10,0000.29,0000.14,0000.15,0000.06,0000.25,-000.04,0000.26,26.3,03.3,0679.1,34.5
2016-06-09T01:31:00Z,0000388,00000608,0001.64,0000.45,0000.35,0000.33,0000.29,-000.14,-000.05,0000.24,0000.04,26.3,03.3,0679.1,34.5
2016-06-09T01:32:00Z,0000388,00000608,0002.04,0001.27,0001.04,0000.17,0000.64,-000.08,0000.24,0000.16,0000.11,26.3,03.3,0679.1,34.5
2016-06-09T01:33:00Z,0000388,00000608,0001.20,0000.92,0001.16,-000.20,0000.48,0000.14,0000.19,-000.01,0000.02,26.3,03.3,0679.1,34.5
2016-06-09T01:34:00Z,0000388,00000608,0001.75,0001.68,0000.77,0000.30,0000.51,0000.14,0000.06,0000.14,0000.25,26.3,03.3,0679.1,34.5
2016-06-09T01:35:00Z,0000388,00000608,0002.10,0001.12,0000.75,0000.09,-000.02,0000.05,0000.14,0000.00,0000.04,26.3,03.3,0679.1,34.5
2016-06-09T01:36:00Z,0000388,00000608,0001.50,0000.83,0001.02,0000.44,-000.14,0000.12,-000.27,-000.10,-000.43,26.3,03.2,0679.1,34.5
2016-06-09T01:37:00Z,0000388,00000608,0001.31,0001.29,0000.98,-000.02,0000.28,-000.23,0000.17,-000.10,0000.52,26.3,03.3,0679.1,34.5
2016-06-09T01:38:00Z,0000388,00000608,0001.46,0001.32,0000.79,-000.16,-000.25,0000.06,0000.31,0000.32,-000.17,26.4,03.3,0679.0,34.5
2016-06-09T01:39:00Z,0000388,00000608,0001.21,0000.99,0000.83,-000.61,0000.33,0000.26,0000.08,0000.06,0000.08,26.4,03.3,0679.0,34.5
2016-06-09T01:40:00Z,0000388,00000608,0002.00,0000.85,0000.53,-000.25,0000.25,-000.06,0000.08,0000.05,0000.12,26.4,03.3,0679.0,34.5
2016-06-09T01:41:00Z,0000388,00000608,0002.01,0001.54,0001.18,0000.54,0000.06,0000.17,0000.01,0000.26,0000.02,26.4,03.3,0679.0,34.5
2016-06-09T01:42:00Z,0000388,00000608,0001.34,0001.11,0000.38,0000.25,0000.34,-000.20,0000.24,0000.06,0000.32,26.5,03.2,0679.0,34.5
2016-06-09T01:43:00Z,0000388,00000608,0001.42,0000.55,0000.78,-000.30,0000.48,0000.26,0000.21,0000.25,-000.05,26.4,03.2,0679.0,34.5
2016-06-09T01:44:00Z,0000388,00000608,0000.99,0000.91,0000.63,-000.36,0000.17,0000.14,0000.17,0000.11,0000.05,26.4,03.2,0679.0,34.5
2016-06-09T01:45:00Z,0000388,00000608,0002.53,0001.09,0000.45,0000.09,0000.34,0000.03,-000.02,0000.05,0000.19,26.4,03.2,0679.0,34.5
2016-06-09T01:46:00Z,0000388,00000608,0000.71,0000.68,0000.36,-000.28,0000.14,-000.20,0000.15,0000.23,-000.10,26.4,03.3,0679.0,34.5
2016-06-09T01:47:00Z,0000388,00000608,0000.81,0001.31,0000.49,-000.22,0000.56,0000.11,0000.11,-000.04,0000.02,26.4,03.4,0679.0,34.5
2016-06-09T01:48:00Z,0000388,00000608,0000.98,0001.75,0000.34,0000.20,0000.46,-000.14,0000.11,0000.15,0000.30,26.4,03.3,0679.0,34.5
2016-06-09T01:49:00Z,0000388,00000608,0001.36,0001.37,0000.40,-000.11,0000.50,0000.14,0000.04,0000.02,-000.13,26.4,03.4,0679.0,34.5
2016-06-09T01:50:00Z,0000388,00000608,0001.23,0001.08,0000.38,0000.09,0000.40,0000.20,0000.17,0000.14,0000.51,26.4,03.2,0679.0,34.5
2016-06-09T01:51:00Z,0000388,00000608,0002.50,0000.57,0000.70,0000.40,0000.28,0000.14,-000.20,-000.10,-000.61,26.4,03.3,0679.0,34.5
2016-06-09T01:52:00Z,0000388,00000608,0000.99,0000.67,0000.94,-000.25,0000.96,-000.06,0000.25,0000.11,0000.37,26.4,03.5,0679.0,34.5
2016-06-09T01:53:00Z,0000388,00000608,0001.91,0000.73,0000.62,0000.42,-000.05,0000.05,0000.17,0000.28,-000.12,26.4,03.7,0679.0,34.5
2016-06-09T01:54:00Z,0000388,00000608,0000.44,0000.68,0000.92,0000.20,0000.36,0000.17,0000.15,0000.11,0000.20,26.4,03.5,0679.0,34.5
2016-06-09T01:55:00Z,0000388,00000608,0000.90,0001.01,0000.49,0000.86,0000.42,0000.02,-000.04,-000.26,0000.25,26.4,03.5,0679.0,34.5
2016-06-09T01:56:00Z,0000388,00000608,0002.04,0001.41,0000.71,0000.40,0000.64,0000.03,0000.33,0000.39,0000.05,26.4,03.4,0679.0,34.5
2016-06-09T01:57:00Z,0000388,40000608,,,,,,,,,,,,0678.9,34.5
2016-06-09T01:58:00Z,0000388,60000608,,,,,,,,,,26.3,03.3,0678.1,34.5
2016-06-09T01:59:00Z,0000388,20000608,,,,,,,,,,26.3,03.2,0678.1,34.5
2016-06-09T02:00:00Z,0000388,20000608,,,,,,,,,,26.3,03.3,0678.1,34.5
2016-06-09T02:01:00Z,0000388,20000608,,,,,,,,,,26.3,03.4,0678.1,34.5
2016-06-09T02:02:00Z,0000388,20000608,,,,,,,,,,26.3,03.4,0678.1,34.5
2016-06-09T02:03:00Z,0000388,60000608,,,,,,,,,,26.3,03.4,0678.1,34.5
2016-06-09T02:04:00Z,0000388,40000608,0001.86,0001.29,0000.85,0000.79,0000.14,0000.09,0000.25,0000.24,0000.24,26.3,03.7,0678.9,34.5
2016-06-09T02:05:00Z,0000388,00000608,0002.28,0002.04,0000.92,0000.20,0000.15,-000.26,0000.08,-000.11,0000.04,26.3,03.7,0679.0,34.5
2016-06-09T02:06:00Z,0000388,00000608,0002.19,0001.13,0000.68,0000.36,0000.00,0000.31,0000.06,-000.15,-000.22,26.3,03.7,0679.0,34.5
2016-06-09T02:07:00Z,0000388,00000608,0002.20,0001.57,0000.66,-000.17,0000.62,0000.33,-000.19,-000.00,0000.19,26.3,03.7,0679.0,34.5
2016-06-09T02:08:00Z,0000388,00000608,0002.25,0001.51,0000.69,0000.16,0000.02,0000.25,0000.33,0000.41,-000.08,26.4,03.7,0679.0,34.5
2016-06-09T02:09:00Z,0000388,00000608,0001.79,0001.05,0001.20,-000.33,0000.08,-000.22,0000.04,0000.07,0000.40,26.4,03.7,0678.9,34.5
2016-06-09T02:10:00Z,0000388,00000608,0002.33,0001.04,0000.80,-000.30,-000.22,-000.06,0000.16,0000.03,0000.06,26.4,03.6,0679.0,34.5
2016-06-09T02:11:00Z,0000388,00000608,0002.02,0001.33,0000.65,0000.05,0000.05,0000.08,0000.28,0000.41,0000.24,26.5,03.6,0679.0,34.5
2016-06-09T02:12:00Z,0000388,00000608,0002.90,0001.20,0000.49,0000.00,0000.12,0000.36,0000.17,0000.27,-000.06,26.5,03.6,0679.0,34.5
2016-06-09T02:13:00Z,0000388,00000608,0001.67,0001.16,0000.68,0000.09,0000.06,0000.22,0000.16,0000.04,0000.08,26.5,03.7,0679.0,34.5
2016-06-09T02:14:00Z,0000388,00000608,0001.51,0001.10,0001.12,0000.00,0000.23,0000.39,0000.11,0000.22,0000.24,26.5,03.6,0679.0,34.5
2016-06-09T02:15:00Z,0000388,00000608,0001.61,0000.58,0000.89,-000.17,-000.12,0000.05,0000.31,0000.04,0000.11,26.5,03.4,0679.0,34.5
2016-06-09T02:16:00Z,0000388,00000608,0002.85,0001.24,0000.63,0000.51,-000.05,0000.17,-000.05,0000.19,-000.05,26.5,03.5,0679.0,34.5
2016-06-09T02:17:00Z,0000388,00000608,0001.29,0001.42,0001.04,0000.34,0000.28,0000.03,0000.28,0000.08,0000.29,26.5,03.5,0679.0,34.5
2016-06-09T02:18:00Z,0000388,00000608,0001.58,0000.77,0000.80,0000.23,-000.06,0000.02,0000.19,0000.16,0000.05,26.5,03.6,0679.0,34.5
2016-06-09T02:19:00Z,0000388,00000608,0001.74,0001.61,0001.04,-000.02,0000.09,0000.26,-000.02,0000.13,0000.13,26.4,03.6,0679.0,34.5
2016-06-09T02:20:00Z,0000388,00000608,0002.01,0001.43,0000.60,0000.14,0000.54,-000.19,0000.27,0000.13,-000.23,26.4,03.5,0679.0,34.5
2016-06-09T02:21:00Z,0000388,00000608,0002.37,0001.86,0000.76,-000.34,0000.22,0000.06,0000.14,0000.07,0000.34,26.4,03.6,0679.0,34.5
2016-06-09T02:22:00Z,0000388,00000608,0002.73,0001.17,0000.91,0000.23,0000.12,0000.39,0000.19,0000.11,0000.15,26.4,03.6,0679.0,34.5
2016-06-09T02:23:00Z,0000388,00000608,0002.08,0001.07,0000.22,-000.39,0000.19,0000.26,-000.02,0000.17,-000.03,26.4,03.6,0679.0,34.5
2016-06-09T02:24:00Z,0000388,00000608,0001.67,0001.53,0000.39,0000.31,0000.42,-000.03,0000.24,0000.19,0000.24,26.3,03.6,0679.0,34.5
2016-06-09T02:25:00Z,0000388,00000608,0001.87,0001.51,0000.62,0000.09,-000.03,0000.05,0000.25,0000.04,0000.04,26.3,03.6,0679.0,34.5
2016-06-09T02:26:00Z,0000388,00000608,0002.31,0001.67,0001.07,0000.67,0000.74,0000.12,0000.04,0000.22,0000.13,26.3,03.6,0679.0,34.5
2016-06-09T02:27:00Z,0000388,00000608,0002.83,0001.29,0000.88,-000.22,0000.43,0000.30,0000.18,0000.14,-000.09,26.3,03.7,0679.0,34.5
2016-06-09T02:28:00Z,0000388,00000608,0002.17,0001.39,0000.43,0000.11,0000.11,-000.26,0000.14,0000.04,0000.27,26.3,03.6,0679.0,34.5
2016-06-09T02:29:00Z,0000388,00000608,0002.60,0001.22,0000.44,0000.54,0000.12,0000.25,0000.23,0000.13,0000.10,26.3,03.6,0679.0,34.5
2016-06-09T02:30:00Z,0000388,00000608,0001.94,0001.65,0000.71,0000.23,-000.31,0000.08,-000.03,0000.16,-000.26,26.3,03.7,0679.0,34.5
2016-06-09T02:31:00Z,0000388,00000608,0001.48,0001.66,0000.45,0000.00,-000.14,0000.34,0000.16,0000.17,0000.52,26.3,03.7,0679.0,34.5
2016-06-09T02:32:00Z,0000388,00000608,0002.38,0001.18,0000.69,0000.31,0000.05,0000.12,0000.20,0000.09,0000.03,26.3,03.6,0679.0,34.5
2016-06-09T02:33:00Z,0000388,00000608,0003.12,0001.85,0000.58,-000.05,0000.15,-000.02,0000.20,0000.06,0000.12,26.3,03.7,0678.9,34.5
2016-06-09T02:34:00Z,0000388,00000608,0002.43,0001.28,0000.88,0000.25,0000.53,0000.22,0000.10,0000.25,0000.17,26.3,03.7,0679.0,34.5
2016-06-09T02:35:00Z,0000388,00000608,0002.78,0001.46,0000.64,-000.16,0000.17,-000.16,0000.00,-000.08,0000.06,26.3,03.7,0679.0,34.5
2016-06-09T02:36:00Z,0000388,00000608,0002.29,0001.78,0000.81,0000.26,-000.02,0000.02,0000.07,-000.07,-000.32,26.3,03.7,0679.0,34.5
2016-06-09T02:37:00Z,0000388,00000608,0001.76,0001.26,0000.63,0000.19,0000.60,-000.20,0000.07,-000.06,0000.14,26.3,03.7,0679.0,34.5
2016-06-09T02:38:00Z,0000388,00000608,0000.89,0001.39,0000.73,0000.11,0000.45,0000.03,0000.00,0000.18,0000.15,26.3,03.7,0678.9,34.5
2016-06-09T02:39:00Z,0000388,00000608,0001.65,0000.73,0000.23,-000.16,-000.31,0000.31,0000.30,0000.34,0000.20,26.3,03.6,0678.9,34.5
2016-06-09T02:40:00Z,0000388,00000608,0001.87,0000.94,0000.59,0000.17,0000.20,0000.12,-000.07,-000.03,0000.16,26.4,03.6,0678.9,34.5
2016-06-09T02:41:00Z,0000388,00000608,0001.98,0000.83,0000.88,0000.26,0000.09,-000.05,0000.30,0000.20,-000.04,26.4,03.6,0678.9,34.5
2016-06-09T02:42:00Z,0000388,00000608,0001.32,0001.29,0001.27,-000.33,0000.37,0000.08,0000.24,0000.20,0000.26,26.5,03.6,0678.9,34.5
2016-06-09T02:43:00Z,0000388,00000608,0002.21,0001.29,0000.52,0000.16,0000.06,0000.12,0000.19,0000.13,0000.14,26.5,03.7,0678.9,34.5
2016-06-09T02:44:00Z,0000388,00000608,0002.20,0001.49,0000.73,0000.12,-000.02,0000.16,-000.02,0000.34,-000.02,26.5,03.7,0678.9,34.5
2016-06-09T02:45:00Z,0000388,00000608,0001.16,0001.22,0000.92,-000.23,-000.20,-000.03,0000.24,0000.11,0000.21,26.5,03.7,0678.9,34.5
2016-06-09T02:46:00Z,0000388,00000608,0002.01,0001.70,0001.13,-000.28,0000.03,0000.00,0000.16,0000.16,0000.22,26.5,03.7,0678.9,34.5
2016-06-09T02:47:00Z,0000388,00000608,0002.01,0001.13,0000.89,-000.28,0000.17,0000.25,0000.18,-000.08,-000.01,26.5,03.6,0678.9,34.5
2016-06-09T02:48:00Z,0000388,00000608,0001.59,0001.18,0000.55,-000.42,0000.20,-000.20,0000.11,0000.28,0000.23,26.5,03.6,0679.0,34.5
2016-06-09T02:49:00Z,0000380,00000600,0002.51,0001.16,0001.03,-000.81,0000.12,0000.17,0000.11,0000.01,-000.23,26.5,03.6,0678.9,34.5
2016-06-09T02:50:00Z,0000380,00000600,0002.30,0001.14,0000.24,-000.26,0000.29,0000.03,0000.01,0000.04,0000.41,26.4,03.5,0678.9,34.5
2016-06-09T02:51:00Z,0000380,00000600,0001.54,0000.26,0000.58,0000.23,0000.19,0000.14,0000.38,0000.24,-000.08,26.4,03.5,0678.9,34.5
2016-06-09T02:52:00Z,0000380,00000600,0002.00,0001.68,0000.70,0000.00,0000.17,0000.16,-000.11,0000.13,0000.16,26.4,03.7,0678.9,34.5
2016-06-09T02:53:00Z,0000380,00000600,0001.70,0001.30,0001.30,-000.08,0000.20,0000.70,0000.29,0000.22,0000.06,26.4,03.8,0678.9,34.5
2016-06-09T02:54:00Z,0000380,00000600,0001.35,0001.80,0000.51,-000.05,0000.28,-000.34,0000.12,0000.16,-000.06,26.3,03.8,0678.9,34.5
2016-06-09T02:55:00Z,0000380,00000600,0001.86,0001.27,0000.57,0000.05,-000.03,-000.40,0000.16,-000.10,0000.28,26.3,03.8,0678.9,34.5
2016-06-09T02:56:00Z,0000380,00000600,0002.24,0000.84,0000.65,-000.20,0000.14,-000.14,0000.03,0000.19,0000.05,26.3,03.8,0678.9,34.5
2016-06-09T02:57:00Z,0000380,40000600,,,,,,,,,,,,0679.3,34.5
2016-06-09T02:58:00Z,0000380,60000600,,,,,,,,,,26.2,03.7,0678.0,34.5
2016-06-09T02:59:00Z,0000380,20000600,,,,,,,,,,26.2,03.6,0678.0,34.5
2016-06-09T03:00:00Z,0000380,20000600,,,,,,,,,,26.2,03.6,0678.0,34.5
2016-06-09T03:01:00Z,0000380,20000600,,,,,,,,,,26.2,03.6,0678.0,34.5
2016-06-09T03:02:00Z,0000380,20000600,,,,,,,,,,26.2,03.6,0678.0,34.5
2016-06-09T03:03:00Z,0000380,60000600,,,,,,,,,,26.2,03.6,0678.0,34.5
2016-06-09T03:04:00Z,0000380,40000600,0001.79,0001.26,0000.25,-000.05,0000.23,-000.08,0000.02,0000.16,-000.35,26.3,03.7,0678.7,34.5
2016-06-09T03:05:00Z,0000380,00000600,0001.44,0000.82,0000.26,0000.00,0000.37,0000.03,0000.15,-000.11,0000.12,26.3,03.7,0678.8,34.5
2016-06-09T03:06:00Z,0000380,00000600,0002.01,0001.02,0000.83,0000.16,0000.37,0000.31,0000.01,-000.16,0000.12,26.3,03.6,0678.8,34.5
2016-06-09T03:07:00Z,0000380,00000600,0001.20,0001.44,0000.47,0000.28,0000.11,0000.02,-000.05,0000.05,-000.14,26.3,03.6,0678.8,34.5
2016-06-09T03:08:00Z,0000380,00000600,0001.23,0001.06,0000.29,0000.40,0000.43,0000.17,0000.11,-000.08,-000.07,26.3,03.7,0678.8,34.5
2016-06-09T03:09:00Z,0000380,00000600,0000.80,0001.24,0000.53,0000.50,0000.28,-000.08,0000.21,0000.30,0000.41,26.3,03.6,0678.8,34.5
2016-06-09T03:10:00Z,0000380,00000600,0001.80,0001.10,0000.76,-000.23,-000.16,0000.09,-000.00,0000.13,-000.11,26.4,03.7,0678.7,34.5
2016-06-09T03:11:00Z,0000380,00000600,0001.65,0000.57,0000.52,-000.37,0000.26,0000.19,0000.15,0000.05,0000.63,26.4,03.6,0678.7,34.5
2016-06-09T03:12:00Z,0000380,00000600,0002.07,0000.94,0000.58,-000.08,0000.20,-000.16,0000.28,0000.17,-000.27,26.5,03.6,0678.7,34.5